Tracking 28096 objects as of 29-Sep-2023
HD Live streaming from Space Station
objects crossing your sky now

COSMOS 1375 DEB

Track COSMOS 1375 DEB now!
10-day predictions


NORAD ID: 19453
Int'l Code: 1982-055BL
Perigee: 742.9 km
Apogee: 837.5 km
Inclination: 65.8 °
Period: 100.5 minutes
Semi major axis: 7161 km
RCS: 0.0034 m2 (small)
Launch date: June 6, 1982
Source: Commonwealth of Independent States (former USSR) (CIS)
Launch site: PLESETSK MISSILE AND SPACE COMPLEX (PKMTR)

Note: This is SATELLITE DEBRIS
Your satellite tracking list
Your tracking list is empty




NASA's NSSDC Master Catalog

Two Line Element Set (TLE):
1 19453U 82055BL  23272.14652317  .00003283  00000-0  12112-2 0  9992
2 19453  65.8060 163.4223 0066047 259.8820 252.0739 14.32601642829823
Source of the keplerian elements: AFSPC